DW0805 Weather Reports


time (UTC)temp
C
wind
direction
speed
KPH
gust
KPH
rain 1hr
cm
rain 24hr
cm
rain mn
cm
humidity
%
barometer
mb
20260903142514 17 213 11.3 19.3 0.00 0.91 0.91 95 1005.6
20260903134514 17 192 11.3 20.9 0.00 0.91 0.91 95 1006.0
20260903132516 17 204 11.3 20.9 0.00 0.91 0.91 95 1006.3
20260903123515 17 217 9.7 20.9 0.00 1.17 0.91 95 1006.7
20260903122516 16 201 12.9 22.5 0.00 1.17 0.91 95 1006.8
20260903120515 16 210 14.5 20.9 0.03 1.17 0.91 95 1007.0
20260903114515 16 196 9.7 19.3 0.03 1.17 0.91 95 1007.2
20260903113515 16 182 8.0 19.3 0.03 1.17 0.91 95 1007.4
20260903110515 16 178 3.2 11.3 0.00 1.14 0.89 95 1007.8
20260903105514 16 166 3.2 11.3 0.03 1.14 0.89 95 1007.9
20260903104515 16 179 6.4 14.5 0.03 1.14 0.89 95 1008.0
20260903103514 16 160 3.2 9.7 0.03 1.14 0.89 95 1008.2
20260903102515 16 35 4.8 12.9 0.05 1.14 0.89 95 1008.3
20260903100515 16 173 4.8 16.1 0.08 1.14 0.89 95 1008.7
20260903095515 16 199 6.4 16.1 0.10 1.12 0.89 95 1009.0
20260903091515 15 200 11.3 16.1 0.13 1.09 0.86 95 1009.6
20260903090514 15 214 6.4 14.5 0.08 1.07 0.81 95 1009.7
20260903085515 15 230 8.0 14.5 0.05 1.02 0.79 95 1009.8
20260903084515 15 234 8.0 19.3 0.08 1.02 0.79 95 1009.9
20260903083515 16 221 11.3 24.1 0.08 1.02 0.79 95 1010.0
20260903073516 16 212 11.3 16.1 0.05 0.94 0.71 95 1010.4
20260903072514 16 284 9.7 20.9 0.03 0.91 0.69 95 1010.5
20260903070515 16 192 12.9 20.9 0.00 0.89 0.66 95 1010.6
20260903064515 16 199 11.3 19.3 0.00 0.89 0.66 95 1010.8
20260903055515 15 184 1.6 9.7 0.05 0.89 0.66 95 1011.2
20260903053515 15 69 0.0 1.6 0.23 0.89 0.66 94 1011.4
20260903050515 15 192 0.0 0.0 0.46 0.89 0.64 94 1011.6
20260903045515 15 191 0.0 1.6 0.51 0.84 0.61 93 1011.7
20260903041515 15 245 0.0 0.0 0.30 0.53 0.30 93 1012.1
20260903040515 15 245 0.0 4.8 0.18 0.43 0.18 93 1012.1
20260903034515 15 226 3.2 8.0 0.05 0.30 0.05 92 1012.4
20260903033515 15 225 3.2 8.0 0.03 0.25 0.03 92 1012.3
20260903030515 15 226 3.2 8.0 0.00 0.23 0.00 92 1012.4
20260903024515 15 225 4.8 8.0 0.00 0.23 0.00 91 1012.7
20260903023516 15 248 3.2 4.8 0.00 0.23 0.00 91 1012.7
20260903015515 15 248 3.2 4.8 0.00 0.23 0.00 91 1013.2
20260903005516 15 248 4.8 9.7 0.00 0.23 0.00 89 1013.3
20260903004516 15 238 8.0 9.7 0.00 0.23 0.00 88 1013.4
20260903003515 15 238 4.8 12.9 0.00 0.23 0.00 88 1013.5
20260903002515 15 251 11.3 19.3 0.00 0.23 0.00 87 1013.5
20260903000515 15 263 8.0 12.9 0.00 0.23 0.00 88 1013.6
20260902235515 15 254 8.0 19.3 0.00 0.23 0.00 87 1013.6
20260902224515 15 247 9.7 20.9 0.00 0.23 0.00 88 1013.7
20260902221511 15 240 8.0 16.1 0.00 0.23 0.00 90 1013.8
20260902215515 15 241 11.3 20.9 0.00 0.33 0.23 91 1013.6
20260902213515 15 238 9.7 19.3 0.00 0.33 0.23 93 1013.5
20260902212515 15 243 11.3 20.9 0.00 0.33 0.23 93 1013.4
20260902211516 15 235 9.7 20.9 0.00 0.33 0.23 93 1013.5
20260902210515 15 229 11.3 19.3 0.00 0.33 0.23 93 1013.5
20260902203515 15 232 9.7 19.3 0.00 0.33 0.23 93 1013.6
20260902194516 15 232 14.5 22.5 0.00 0.33 0.23 92 1013.6
20260902193514 15 225 11.3 22.5 0.00 0.33 0.23 92 1013.6
20260902191514 15 239 12.9 22.5 0.00 0.33 0.23 92 1013.6
20260902190514 15 232 11.3 22.5 0.00 0.33 0.23 92 1013.6
20260902185516 15 232 14.5 25.7 0.00 0.33 0.23 92 1013.6
20260902184515 15 249 14.5 22.5 0.00 0.33 0.23 92 1013.5
20260902183513 16 233 11.3 20.9 0.00 0.33 0.23 92 1013.3
20260902181515 16 287 16.1 24.1 0.00 0.33 0.23 91 1013.2
20260902171514 17 232 14.5 22.5 0.00 0.33 0.23 89 1013.1
20260902165515 16 232 11.3 25.7 0.00 0.33 0.23 90 1013.3
20260902164515 16 233 19.3 25.7 0.00 0.33 0.23 90 1013.3
20260902161515 17 197 16.1 27.4 0.00 0.33 0.23 89 1013.4
20260902154514 16 233 16.1 24.1 0.00 0.33 0.23 90 1013.5
20260902152514 16 277 14.5 24.1 0.00 0.33 0.23 91 1013.6
20260902151514 16 221 14.5 25.7 0.00 0.33 0.23 91 1013.7
20260902145514 16 246 16.1 27.4 0.00 0.33 0.23 92 1013.7
20260902144514 16 222 12.9 25.7 0.00 0.33 0.23 93 1013.6